GFSFLT2_prec_cloud_060.txt.gz
Cloud_Cover
0 0 0 0 14 0 0 0 0 0 0 0 0 6 100 92 94 82 60 32 46 0 0 0 0 0 0 0 0 0 0 0
0 4 0 0 0 37 0 0 0 0 0 0 0 0 36 5 41 80 100 100 100 4 0 0 0 0 0 0 0 0 0 0
0 0 1 4 0 2 85 42 0 1 0 0 3 0 0 1 32 100 100 100 100 100 9 0 0 0 0 0 0 0 0 0
0 0 3 5 1 0 52 5 15 1 0 0 73 97 5 0 28 100 100 100 100 100 100 4 0 0 0 0 0 0 0 0
0 0 0 1 0 0 1 2 5 54 4 0 66 99 100 17 0 27 16 79 100 100 100 100 23 0 0 0 0 0 0 0
0 0 0 4 10 1 2 5 1 5 32 0 100 86 100 92 5 12 100 98 100 100 100 100 21 0 0 0 0 0 0 0
0 0 1 0 0 0 0 0 5 0 46 0 100 95 100 81 4 0 13 15 41 100 99 100 0 0 0 0 0 0 0 0
42 5 5 0 0 0 0 0 0 96 3 5 100 41 6 5 22 14 85 71 63 100 82 92 100 4 5 0 0 0 0 0
6 97 74 75 4 0 0 0 0 1 0 27 100 49 96 100 100 70 81 97 92 71 97 99 31 100 100 10 3 0 0 0
85 100 99 0 5 20 3 0 0 0 0 26 100 97 65 41 100 52 5 19 12 16 19 100 100 100 100 100 5 2 0 0
100 100 64 21 10 99 100 3 0 0 0 0 84 100 90 100 98 100 94 75 18 5 20 18 59 100 100 100 0 0 0 0
99 100 98 12 100 68 24 0 0 0 0 0 0 11 100 82 86 40 51 46 60 11 5 5 31 4 50 1 0 0 0 0
98 88 73 100 100 100 79 4 1 0 0 2 45 99 62 98 25 12 6 98 86 6 2 0 0 0 0 0 0 0 5 5
100 95 83 43 51 96 22 5 2 0 0 0 24 85 52 4 74 99 67 53 100 100 91 82 10 38 0 0 0 0 5 5
7 85 59 32 91 48 47 17 4 0 0 0 54 88 100 90 42 78 99 100 100 100 100 72 33 35 0 0 3 5 2 5
100 100 99 100 50 79 100 99 33 5 0 29 100 55 44 95 97 93 100 100 100 100 93 96 100 100 58 5 1 1 4 5
100 100 100 100 100 99 91 55 11 4 4 46 100 17 33 10 92 74 100 100 100 100 99 100 100 100 86 39 10 5 0 3
100 100 100 100 100 100 100 100 95 100 100 100 100 29 20 6 100 88 100 100 100 100 83 100 100 100 90 36 43 15 0 2
100 100 100 100 100 100 100 100 100 100 100 100 100 82 100 65 100 100 100 100 100 100 100 100 100 100 100 88 77 73 30 54

GFSFLT2_prec_cloud_063.txt.gz
Cloud_Cover
0 0 0 0 0 0 0 0 0 0 0 0 0 0 3 2 5 85 97 98 50 44 4 0 0 0 0 0 0 0 0 0
0 0 0 0 0 0 0 0 0 0 0 0 0 0 3 2 1 24 96 100 100 53 56 0 0 0 0 0 0 0 0 0
0 0 0 0 0 0 0 0 0 0 0 0 47 3 94 100 58 100 78 100 100 100 100 16 0 0 0 0 0 0 0 0
0 0 0 0 0 0 3 0 1 1 0 0 62 82 98 30 100 94 87 100 100 100 100 45 14 0 0 0 0 0 0 0
5 1 0 0 0 2 0 0 0 5 0 0 61 100 100 60 39 99 91 100 100 100 100 100 100 4 54 5 0 0 0 0
0 11 2 0 0 0 0 0 0 4 0 0 22 100 100 100 100 53 80 100 100 100 100 100 100 100 18 67 1 0 0 0
0 0 0 0 0 0 0 0 0 0 0 4 0 100 100 100 100 100 99 13 74 100 100 100 100 45 5 74 5 0 0 0
0 0 0 0 0 0 0 0 0 0 0 74 0 30 100 81 100 36 50 5 100 100 100 99 83 100 100 100 100 11 0 0
2 0 5 1 0 0 0 0 0 0 0 5 0 0 100 95 99 100 23 89 100 100 92 100 100 100 100 100 99 99 5 5
5 5 8 0 0 2 0 0 0 0 0 0 0 1 42 5 5 33 16 1 57 74 100 100 100 100 100 100 100 21 23 15
61 12 2 4 9 12 36 0 0 0 0 0 0 5 0 5 5 6 5 2 2 38 97 100 100 100 100 100 100 100 100 100
100 20 56 37 100 75 81 4 0 0 0 0 0 0 5 1 31 94 42 0 2 0 17 86 96 52 38 36 100 100 100 100
100 100 10 100 100 100 100 8 5 1 0 0 2 8 0 3 30 100 100 100 70 62 5 99 100 100 38 8 100 100 100 100
26 100 90 38 100 100 100 9 11 5 1 0 0 0 0 1 5 92 100 100 100 100 81 47 100 100 100 100 100 100 100 100
100 100 71 70 67 100 97 9 95 0 5 0 0 0 0 0 10 100 100 100 100 100 100 36 90 100 100 76 100 100 93 100
100 100 100 100 64 28 88 79 100 80 1 0 29 0 0 3 0 66 100 76 100 100 100 95 100 100 100 96 72 100 100 44
88 96 98 100 65 71 100 100 100 98 72 57 34 26 0 7 0 10 90 100 99 52 100 89 100 100 100 86 97 100 96 20
100 100 100 100 100 100 100 100 93 100 100 100 72 92 78 16 10 29 81 97 98 100 23 67 83 100 100 100 92 100 100 96
100 100 100 100 100 100 100 100 100 100 100 100 65 99 49 94 98 99 100 100 58 100 100 100 98 100 100 100 99 72 100 92

GFSFLT2_prec_cloud_069.txt.gz
Cloud_Cover
0 0 0 0 0 0 0 0 0 0 0 0 2 0 0 0 0 3 4 4 93 0 54 5 48 0 0 0 0 0 0 0
0 0 0 0 0 0 0 0 0 0 0 0 0 0 0 0 0 0 0 6 57 3 2 0 10 10 1 1 0 0 0 0
0 0 0 0 0 0 0 0 0 0 0 0 0 0 0 0 0 0 0 0 26 8 3 0 5 5 4 0 0 0 0 0
0 0 0 0 0 0 0 0 0 0 0 0 0 0 0 0 0 0 0 0 1 94 8 14 79 40 4 5 0 0 0 0
0 0 0 0 0 0 0 0 0 0 0 0 0 0 0 49 23 0 0 0 2 0 64 100 100 100 65 94 5 0 0 0
81 5 2 0 0 0 0 0 0 0 0 0 20 98 18 23 50 63 11 1 1 54 72 100 100 100 100 58 6 0 0 0
100 47 5 5 5 0 0 0 0 0 0 0 78 66 42 0 45 97 58 33 56 42 8 37 100 100 100 100 32 5 0 0
100 100 90 5 5 4 0 0 0 0 0 0 0 0 0 0 0 29 97 100 92 92 18 24 100 100 100 92 80 12 5 0
74 100 100 100 7 5 1 0 0 0 0 0 0 0 59 5 0 10 30 12 95 100 99 100 99 100 100 100 100 100 12 3
6 92 100 98 7 5 5 0 0 0 0 0 0 16 6 0 0 0 15 23 17 84 100 98 76 100 100 100 100 100 68 10
0 4 2 15 100 82 19 4 0 0 0 0 0 0 0 0 0 0 0 5 39 6 70 70 64 100 96 100 100 76 8 74
16 5 5 1 1 0 5 5 0 0 0 0 0 2 2 0 0 0 0 0 99 22 65 29 85 94 100 71 100 99 100 100
5 10 4 0 0 2 4 4 4 0 0 0 0 0 3 0 0 0 0 2 35 100 76 78 67 21 100 98 100 98 100 100
56 59 36 5 3 4 22 0 0 0 0 0 2 23 5 20 0 0 0 0 51 72 99 56 100 96 100 100 100 100 100 100
13 4 4 5 5 4 4 4 2 4 0 0 0 90 40 71 47 0 0 0 0 87 86 94 65 100 99 100 100 100 100 100
2 2 4 14 27 32 21 26 3 5 8 17 53 100 53 39 100 79 0 0 0 10 60 99 24 91 99 100 100 100 100 91
5 2 1 10 5 16 66 81 97 99 100 100 100 100 71 53 5 83 7 0 0 35 90 78 61 10 98 100 100 100 92 100
98 5 5 4 14 66 69 100 100 100 100 100 100 100 100 84 65 4 5 3 0 8 99 100 95 12 59 100 100 100 100 100
4 44 5 5 5 51 67 98 100 100 100 100 100 100 100 100 98 99 99 44 32 2 98 100 100 3 5 25 100 100 100 100

GFSFLT2_prec_cloud_075.txt.gz
Cloud_Cover
0 0 0 0 0 0 0 0 0 0 0 0 0 0 41 93 100 59 7 5 4 5 2 5 7 1 4 26 25 6 4 1
0 0 0 0 0 0 0 0 0 0 0 0 17 87 100 100 100 100 95 38 5 5 75 43 20 5 6 16 62 92 66 26
0 0 0 0 0 0 0 0 0 0 0 12 100 100 100 100 100 100 100 100 99 8 88 44 14 4 8 29 66 70 54 30
0 0 0 0 0 0 0 0 0 0 0 32 88 100 100 100 100 100 100 100 99 96 89 20 5 5 5 58 100 100 100 98
0 0 0 0 0 0 0 0 0 0 0 0 4 40 100 100 100 100 100 100 100 100 98 43 65 89 77 61 3 20 100 68
0 0 0 0 0 0 0 0 0 0 0 0 0 0 8 57 91 100 100 100 100 100 100 100 100 78 53 73 26 2 6 18
0 0 0 0 0 0 0 0 0 0 0 0 4 7 0 2 10 61 100 94 100 100 100 100 100 100 100 96 61 100 66 74
100 65 5 0 0 0 0 0 0 0 0 0 10 6 0 0 0 0 1 42 26 63 90 100 100 100 100 100 100 100 100 100
90 93 99 99 12 0 0 0 0 0 0 0 0 0 0 0 0 0 0 0 16 73 96 56 99 100 100 100 100 100 99 100
100 100 66 6 93 80 50 3 0 0 0 0 0 0 0 0 0 0 0 0 0 1 45 53 87 100 100 100 100 100 100 100
75 28 8 5 23 5 18 23 5 3 0 0 0 0 0 0 0 0 0 0 0 0 0 43 48 12 51 95 100 100 100 100
31 5 5 5 5 5 5 5 5 0 0 0 0 0 1 0 0 0 0 0 0 0 0 0 11 92 57 8 29 57 98 100
5 3 3 5 5 5 5 16 32 0 0 0 0 0 0 0 0 0 0 0 0 0 0 0 0 0 0 8 47 5 5 90
37 10 5 4 0 1 1 3 0 0 0 0 0 0 0 0 0 0 0 0 0 0 0 0 0 0 0 0 25 19 0 7
2 4 5 5 5 0 0 0 0 0 0 0 0 0 0 0 0 0 0 0 0 0 0 0 0 0 0 0 17 39 0 0
0 0 0 0 0 0 0 0 0 0 0 4 6 10 10 10 9 2 0 0 0 1 0 0 0 0 0 11 83 14 5 0
4 0 0 0 0 0 0 0 0 0 3 29 55 53 85 70 94 65 67 45 50 67 54 16 0 0 0 0 95 44 4 0
0 3 4 2 0 0 0 0 0 4 7 38 72 38 99 81 39 82 32 17 100 100 100 100 100 87 13 17 96 40 41 52
0 0 1 5 7 8 5 5 5 5 5 5 6 38 44 39 95 72 98 100 100 100 100 100 48 100 100 99 61 97 84 60

GFSFLT2_prec_cloud_078.txt.gz
Cloud_Cover
0 0 0 0 0 17 5 5 4 0 0 0 0 7 88 100 94 90 84 71 70 82 98 50 2 3 3 97 62 79 98 5
0 0 0 0 0 0 0 2 4 3 0 0 0 28 100 100 100 90 50 76 100 100 37 4 0 5 1 22 5 91 100 98
0 0 0 0 0 0 0 0 1 5 12 0 35 100 100 100 100 100 98 22 48 100 100 16 7 2 92 96 91 18 40 100
0 0 0 0 0 0 0 0 0 51 2 11 18 100 100 100 100 100 100 100 100 90 100 97 36 21 79 95 88 75 39 72
0 0 0 0 0 0 0 0 3 0 1 1 29 56 100 100 100 100 100 100 100 100 100 99 98 98 80 42 59 95 51 14
2 0 0 0 0 0 0 1 21 2 0 18 20 24 35 87 100 100 100 100 100 100 100 100 100 90 64 93 76 24 13 6
0 0 0 0 0 0 0 0 5 14 0 4 8 0 11 28 46 76 99 100 100 100 100 100 100 100 100 79 81 92 27 34
6 0 0 0 0 0 0 0 0 0 0 18 0 0 0 0 0 0 0 0 5 25 82 100 100 100 100 100 100 93 43 24
100 100 26 0 0 0 0 0 0 0 0 0 0 0 0 0 0 0 0 0 0 30 8 49 94 92 100 100 100 100 100 97
100 100 100 29 2 0 0 0 0 0 0 0 0 0 0 0 0 0 0 0 0 0 0 0 39 90 100 100 100 100 100 100
100 100 7 23 100 60 4 0 0 0 0 0 0 0 0 0 0 0 0 0 0 0 0 0 0 0 33 100 61 96 100 100
100 93 85 8 60 61 40 6 5 0 0 0 0 0 17 0 0 0 0 0 0 0 0 0 0 0 0 0 60 30 10 59
98 100 100 100 100 100 94 6 5 5 5 2 1 2 12 0 0 0 0 0 0 0 0 0 0 0 0 0 0 0 0 1
5 5 38 100 100 100 82 90 8 5 5 5 5 5 0 0 0 0 0 0 0 0 0 0 0 0 0 0 0 0 0 0
5 17 0 0 1 24 5 5 5 5 5 5 2 2 0 0 0 0 0 0 0 0 0 0 0 0 0 0 0 0 0 0
0 1 5 4 0 0 0 1 4 5 4 3 4 0 0 0 0 0 3 8 17 15 12 8 6 2 3 0 0 0 0 0
2 1 0 0 1 0 0 0 0 0 0 0 3 5 5 0 3 17 54 100 100 100 78 35 23 77 80 72 40 0 0 0
0 2 0 0 0 0 0 0 0 0 4 5 5 41 100 74 76 87 73 100 100 100 100 100 90 99 45 26 15 98 73 0
5 0 0 0 0 0 0 0 0 3 4 5 6 98 96 99 100 100 100 100 100 100 100 100 100 93 68 97 91 40 100 93